When you browse on this site, cookies collect data to enhance your experience and personalize the content and advertising you see.
Visit our Privacy Policy to learn more. By continuing to use the site, you agree to this use of cookies and data.
  • In Österreich
  • Länderverzeichnis
  • Für 7 Tage
  • Wassertemperatur
  • Satellitenkarten
  • Wetterkarte
  • News
  • Widgets
  • user-avatar
    Anmelden

    Stündliche Wetter Graz

    Heute, 21 Mai, Dienstag

    Zeit Temperatur Niederschläge Wind Luftdruck Luftfeuchtigkeit
    00:00 +10°C° 0 mm 1 m/S 715 mmHg 92%
    01:00 +10°C° 0 mm 1 m/S 715 mmHg 93%
    02:00 +10°C° 0.2 mm 1 m/S 715 mmHg 93%
    03:00 +10°C° 0.2 mm 1 m/S 715 mmHg 93%
    04:00 +10°C° 0.2 mm 1 m/S 716 mmHg 92%
    05:00 +11°C° 0.3 mm 1 m/S 716 mmHg 90%
    06:00 +12°C° 0.3 mm 1 m/S 716 mmHg 87%
    07:00 +13°C° 0 mm 1 m/S 716 mmHg 87%
    08:00 +13°C° 0.6 mm 1 m/S 716 mmHg 85%
    09:00 +14°C° 0.6 mm 1 m/S 717 mmHg 84%
    10:00 +14°C° 0.6 mm 2 m/S 717 mmHg 82%
    11:00 +15°C° 0.4 mm 1 m/S 717 mmHg 80%
    12:00 +16°C° 0.4 mm 1 m/S 718 mmHg 78%
    13:00 +16°C° 0.4 mm 1 m/S 718 mmHg 76%
    14:00 +18°C° 0.4 mm 1 m/S 718 mmHg 74%
    15:00 +18°C° 0.4 mm 1 m/S 718 mmHg 73%
    16:00 +17°C° 0.4 mm 2 m/S 719 mmHg 72%
    17:00 +16°C° 0.1 mm 1 m/S 719 mmHg 76%
    18:00 +16°C° 0.1 mm 1 m/S 719 mmHg 79%
    19:00 +15°C° 0.1 mm 1 m/S 719 mmHg 83%
    20:00 +14°C° 0.1 mm 1 m/S 719 mmHg 85%
    21:00 +13°C° 0.1 mm 1 m/S 719 mmHg 88%
    22:00 +12°C° 0.1 mm 1 m/S 720 mmHg 90%
    23:00 +12°C° 0.2 mm 1 m/S 720 mmHg 89%

    Morgen, 22 Mai, Mittwoch

    Zeit Temperatur Niederschläge Wind Luftdruck Luftfeuchtigkeit
    00:00 +12°C° 0.2 mm 1 m/S 720 mmHg 89%
    01:00 +12°C° 0.2 mm 1 m/S 720 mmHg 88%
    02:00 +12°C° 0 mm 1 m/S 720 mmHg 88%
    03:00 +12°C° 0 mm 1 m/S 720 mmHg 88%
    04:00 +12°C° 0 mm 1 m/S 720 mmHg 88%
    05:00 +13°C° 0 mm 2 m/S 720 mmHg 84%
    06:00 +14°C° 0 mm 2 m/S 721 mmHg 80%
    07:00 +15°C° 0 mm 2 m/S 721 mmHg 76%
    08:00 +17°C° 0 mm 2 m/S 721 mmHg 66%
    09:00 +19°C° 0 mm 2 m/S 722 mmHg 57%
    10:00 +21°C° 0 mm 2 m/S 722 mmHg 48%
    11:00 +20°C° 0 mm 2 m/S 722 mmHg 49%
    12:00 +20°C° 0 mm 2 m/S 722 mmHg 51%
    13:00 +20°C° 0 mm 2 m/S 722 mmHg 52%
    14:00 +20°C° 0.1 mm 2 m/S 722 mmHg 52%
    15:00 +20°C° 0.1 mm 2 m/S 722 mmHg 53%
    16:00 +20°C° 0.1 mm 2 m/S 722 mmHg 53%
    17:00 +19°C° 0.1 mm 2 m/S 723 mmHg 60%
    18:00 +18°C° 0.1 mm 1 m/S 723 mmHg 66%
    19:00 +16°C° 0.1 mm 1 m/S 723 mmHg 73%
    20:00 +15°C° 0 mm 1 m/S 723 mmHg 76%
    21:00 +14°C° 0 mm 1 m/S 723 mmHg 78%
    22:00 +13°C° 0 mm 1 m/S 724 mmHg 81%
    23:00 +13°C° 0 mm 1 m/S 724 mmHg 82%

    übermorgen, 23 Mai, Donnerstag

    Zeit Temperatur Niederschläge Wind Luftdruck Luftfeuchtigkeit
    00:00 +12°C° 0 mm 1 m/S 724 mmHg 84%
    01:00 +12°C° 0 mm 1 m/S 724 mmHg 85%
    02:00 +12°C° 0 mm 1 m/S 724 mmHg 86%
    03:00 +11°C° 0 mm 1 m/S 724 mmHg 86%
    04:00 +11°C° 0 mm 1 m/S 724 mmHg 87%
    05:00 +13°C° 0 mm 1 m/S 724 mmHg 82%
    06:00 +14°C° 0 mm 1 m/S 724 mmHg 78%
    07:00 +15°C° 0 mm 1 m/S 725 mmHg 74%
    08:00 +16°C° 0.1 mm 1 m/S 725 mmHg 68%
    09:00 +18°C° 0.1 mm 2 m/S 725 mmHg 61%
    10:00 +19°C° 0.1 mm 2 m/S 725 mmHg 55%
    11:00 +20°C° 0 mm 2 m/S 725 mmHg 52%
    12:00 +20°C° 0 mm 2 m/S 725 mmHg 48%
    13:00 +21°C° 0 mm 2 m/S 725 mmHg 45%
    14:00 +21°C° 0 mm 2 m/S 724 mmHg 46%
    15:00 +21°C° 0 mm 2 m/S 724 mmHg 47%
    16:00 +21°C° 0 mm 2 m/S 724 mmHg 48%
    17:00 +20°C° 0 mm 1 m/S 724 mmHg 55%
    18:00 +19°C° 0 mm 1 m/S 724 mmHg 63%
    19:00 +16°C° 0 mm 1 m/S 724 mmHg 70%
    20:00 +15°C° 0.1 mm 1 m/S 724 mmHg 75%
    21:00 +14°C° 0.1 mm 1 m/S 724 mmHg 80%
    22:00 +12°C° 0.1 mm 0 m/S 725 mmHg 85%
    23:00 +12°C° 0 mm 1 m/S 725 mmHg 86%

    24 Mai, Freitag

    Zeit Temperatur Niederschläge Wind Luftdruck Luftfeuchtigkeit
    00:00 +11°C° 0 mm 1 m/S 724 mmHg 87%
    01:00 +11°C° 0 mm 1 m/S 724 mmHg 89%
    02:00 +11°C° 0 mm 1 m/S 724 mmHg 88%
    03:00 +10°C° 0 mm 1 m/S 724 mmHg 88%
    04:00 +10°C° 0 mm 1 m/S 724 mmHg 88%
    05:00 +12°C° 0 mm 1 m/S 724 mmHg 82%
    06:00 +14°C° 0 mm 1 m/S 724 mmHg 75%
    07:00 +16°C° 0 mm 1 m/S 724 mmHg 68%
    08:00 +19°C° 0 mm 1 m/S 724 mmHg 60%
    09:00 +20°C° 0 mm 0 m/S 724 mmHg 52%
    10:00 +22°C° 0 mm 0 m/S 724 mmHg 44%
    11:00 +24°C° 0 mm 1 m/S 723 mmHg 46%
    12:00 +23°C° 0 mm 1 m/S 723 mmHg 47%
    13:00 +22°C° 0 mm 1 m/S 722 mmHg 48%
    14:00 +22°C° 0.1 mm 1 m/S 722 mmHg 50%
    15:00 +22°C° 0.1 mm 1 m/S 722 mmHg 52%
    16:00 +22°C° 0.1 mm 1 m/S 722 mmHg 53%
    17:00 +21°C° 0.1 mm 1 m/S 722 mmHg 63%
    18:00 +19°C° 0.1 mm 1 m/S 722 mmHg 73%
    19:00 +18°C° 0.1 mm 1 m/S 721 mmHg 82%
    20:00 +15°C° 0.1 mm 1 m/S 722 mmHg 86%
    21:00 +13°C° 0.1 mm 0 m/S 722 mmHg 89%
    22:00 +12°C° 0.1 mm 0 m/S 722 mmHg 92%
    23:00 +12°C° 0 mm 0 m/S 722 mmHg 92%

    25 Mai, Samstag

    Zeit Temperatur Niederschläge Wind Luftdruck Luftfeuchtigkeit
    00:00 +13°C° 0 mm 1 m/S 722 mmHg 93%
    01:00 +13°C° 0 mm 1 m/S 722 mmHg 93%
    02:00 +12°C° 0 mm 1 m/S 722 mmHg 93%
    03:00 +12°C° 0 mm 1 m/S 722 mmHg 93%
    04:00 +11°C° 0 mm 1 m/S 722 mmHg 93%
    05:00 +13°C° 0 mm 1 m/S 722 mmHg 87%
    06:00 +15°C° 0 mm 1 m/S 722 mmHg 82%
    07:00 +18°C° 0 mm 1 m/S 723 mmHg 77%
    08:00 +20°C° 0 mm 1 m/S 723 mmHg 66%
    09:00 +21°C° 0 mm 0 m/S 723 mmHg 56%
    10:00 +24°C° 0 mm 0 m/S 724 mmHg 46%
    11:00 +25°C° 0.2 mm 1 m/S 723 mmHg 48%
    12:00 +25°C° 0.2 mm 1 m/S 723 mmHg 49%
    13:00 +24°C° 0.2 mm 2 m/S 723 mmHg 50%
    14:00 +24°C° 0.5 mm 1 m/S 722 mmHg 54%
    15:00 +24°C° 0.5 mm 1 m/S 722 mmHg 58%
    16:00 +23°C° 0.5 mm 1 m/S 722 mmHg 61%
    17:00 +22°C° 0.8 mm 1 m/S 722 mmHg 68%
    18:00 +20°C° 0.8 mm 1 m/S 722 mmHg 75%
    19:00 +17°C° 0.8 mm 0 m/S 722 mmHg 81%
    20:00 +18°C° 0.4 mm 1 m/S 722 mmHg 84%
    21:00 +16°C° 0.4 mm 1 m/S 722 mmHg 86%
    22:00 +15°C° 0.4 mm 1 m/S 723 mmHg 88%
    23:00 +14°C° 0 mm 1 m/S 723 mmHg 88%

    26 Mai, Sonntag

    Zeit Temperatur Niederschläge Wind Luftdruck Luftfeuchtigkeit
    00:00 +14°C° 0 mm 1 m/S 723 mmHg 88%
    01:00 +13°C° 0 mm 1 m/S 723 mmHg 88%
    02:00 +13°C° 0 mm 1 m/S 723 mmHg 89%
    03:00 +12°C° 0 mm 1 m/S 723 mmHg 89%
    04:00 +12°C° 0 mm 1 m/S 723 mmHg 89%
    05:00 +13°C° 0 mm 1 m/S 723 mmHg 86%
    06:00 +15°C° 0 mm 1 m/S 723 mmHg 82%
    07:00 +15°C° 0 mm 0 m/S 724 mmHg 79%
    08:00 +18°C° 0 mm 1 m/S 724 mmHg 76%
    09:00 +19°C° 0 mm 1 m/S 724 mmHg 72%
    10:00 +20°C° 0 mm 1 m/S 724 mmHg 69%
    11:00 +21°C° 0.3 mm 1 m/S 724 mmHg 67%
    12:00 +21°C° 0.3 mm 1 m/S 723 mmHg 64%
    13:00 +22°C° 0.3 mm 1 m/S 723 mmHg 61%
    14:00 +23°C° 0.3 mm 1 m/S 723 mmHg 59%
    15:00 +23°C° 0.3 mm 1 m/S 723 mmHg 58%
    16:00 +23°C° 0.3 mm 1 m/S 722 mmHg 56%
    17:00 +22°C° 0.3 mm 1 m/S 722 mmHg 65%
    18:00 +20°C° 0.3 mm 1 m/S 722 mmHg 74%
    19:00 +18°C° 0.3 mm 1 m/S 722 mmHg 82%
    20:00 +16°C° 0.1 mm 1 m/S 722 mmHg 85%
    21:00 +15°C° 0.1 mm 1 m/S 723 mmHg 88%
    22:00 +14°C° 0.1 mm 1 m/S 723 mmHg 91%
    23:00 +13°C° 0 mm 1 m/S 723 mmHg 91%
    Mehr zeigen